Find Telecom 2B

NORAD ID: 21939 Int'l Des: 1992-021 Owner: FTEL Country: F operational
HEOCIRCULAR

Aktuelle Ansicht

3D-Globus wird geladen...

About Telecom 2B

Telecom 2B (NORAD 21939) is a satellite launched Apr 15, 1992 by FTEL of F. It operates in HEO, CIRCULAR orbit with a mass of 2275.00 kg.

Nächste Überflüge

Passes for default location (London). Set your location on the main map for personalized predictions.

Höhenverlauf

Loading altitude history...

Zweizeiliger Elementsatz

1 21939U 92021A 26194.33886381 -.00000294 00000-0 00000+0 0 9995
2 21939 14.5569 3.5256 0017417 99.3458 269.1306 0.99512210117651
Epoch: 13. Juli 2026 • Age: 19 hours

Aktueller Status

Höhe 36075.3 km
Apogäum / Perigäum N/A
Geschwindigkeit 3.06 km/s
Subsatellitenpunkt -13.34°S, 42.75°W
Startdatum 15. Apr. 1992
Alter 34.2 years
Typ other

Technische Details

Klassifizierung Payload
Masse 2275.00 kg
Trockenmasse 1130.00 kg
Gesamtmasse 2275.00 kg
Länge 3.10 m
Durchmesser 1.90 m
Spannweite 22.00 m
Form Box + 2 Pan
Hersteller MMST
Bus-Typ Eurostar 2000
Phasenstatus In Orbit
Besitzer/Staat FTEL/F

Most Searched